Regional Weather Roundup
Issued by NWS

Home | Current Version | Previous Version | Text Only | Print | Product List | Glossary Off
Versions: 1 2 3 4 5 6 7 8 9 10 11 12 13 14 15 16 17 18 19 20 21 22 23 24 25 26 27 28 29 30 31 32 33 34 35 36 37 38 39 40 41 42 43 44 45 46 47 48 49 50

000
ASUS43 KLSX 270259
RWRMO

WEATHER SUMMARY FOR MISSOURI
NATIONAL WEATHER SERVICE SPRINGFIELD MO
900 PM CST WED NOV 26 2014

NOTE: "FAIR" INDICATES FEW OR NO CLOUDS BELOW 12,000 FEET WITH NO
       SIGNIFICANT WEATHER AND/OR OBSTRUCTIONS TO VISIBILITY.
       CURRENT SKY AND/OR WEATHER CONDITIONS ARE NOT AVAILABLE FOR
       CHILLICOTHE AND FARMINGTON.

MOZ001>031-035>038-043-044-053-054-270400-
...NORTHERN AND WESTERN MISSOURI...

CITY           SKY/WX    TMP DP  RH WIND       PRES   REMARKS
KANSAS CTY INT CLOUDY    29  22  75 N15G28    30.32R WCI  18
KANSAS C DTWN  CLOUDY    32  23  69 NW12G21   30.33R WCI  23
LEE`S SUMMIT   CLOUDY    31  23  72 NW14      30.30R WCI  21
ST JOSEPH      CLOUDY    28  21  75 N20G35    30.36R WCI  15
CHILLICOTHE      N/A     32  28  85 NW10G16   30.27R WCI  24
KIRKSVILLE     CLOUDY    31  29  92 N16G22    30.22R FOG     WCI  20

$$
MOZ066>068-077>081-088>096-101>105-270400-
...SOUTHWEST MISSOURI...

CITY           SKY/WX    TMP DP  RH WIND       PRES   REMARKS
SPRINGFIELD    CLOUDY    36  26  67 NW18G31   30.24R WCI  26
JOPLIN         MOCLDY    35  24  64 NW16      30.32R WCI  25

$$
MOZ032>034-039>042-045>050-055>058-069>072-270400-
...CENTRAL MISSOURI...

CITY           SKY/WX    TMP DP  RH WIND       PRES   REMARKS
COLUMBIA       CLOUDY    32  29  88 NW18G28   30.17R WCI  20
JEFFERSON CITY CLOUDY    33  29  85 NW15G23   30.19R WCI  23
ROLLA          FRZ RAIN  32  29  88 W15G31    30.13R WCI  22
SEDALIA        CLOUDY    33  27  78 NW17G25   30.25R WCI  22
WHITEMAN AFB   CLOUDY    32  27  80 NW20G28   30.25R WCI  20
OSAGE BEACH    CLOUDY    34  27  75 W8G20     30.20R WCI  27

$$
MOZ051-052-059>065-270400-
...EAST CENTRAL MISSOURI...

CITY           SKY/WX    TMP DP  RH WIND       PRES   REMARKS
ST LOUIS INTL  CLOUDY    34  31  88 CALM      30.09R FOG
SPIRIT OF STL  CLOUDY    35  32  88 W8        30.09R FOG     WCI  29
ST CHARLES     CLOUDY    33  32  96 NE3       30.10R FOG

$$
MOZ072>076-082>087-097>100-106>115-270400-
...SOUTH CENTRAL AND SOUTHEAST MISSOURI...

CITY           SKY/WX    TMP DP  RH WIND       PRES   REMARKS
CAPE GIRARDEAU CLOUDY    36  35  96 W5        30.09S
FARMINGTON     CLOUDY    37  34  87 W13G18    30.09R WCI  29
POPLAR BLUFF   CLOUDY    38  32  79 W3        30.11R
WEST PLAINS    CLOUDY    40  27  59 NW20G29   30.14R

$$



USA.gov is the U.S. government's official web portal to all federal, state and local government web resources and services.